Flight Information

DEPARTURE
SPOKANE, WA
Elevation:
2385
Runways:
8/26 - 8199x150 - ASPH-G
3/21 - 11002x150 - ASPH-CONC-E
ATIS:
124.325
Clearance Delivery:
127.55
Ground:
121.9
Tower:
SPOKANE TOWER 118.3
DESTINATION
,
Elevation:
TPA:
1000 (est.)


6489.1 NM69° True-19° Var49° HDG

Flight Plan:
(click to file on line)

1. Type
2. Aircraft Identification
3. Aircraft Type / Special Equipment
4. True Airspeed
kts
5. Departure Airport
(ICAO code)
6. Arriving Airport
(ICAO code)
7. Cruising Altitude
ft
8. Alternate Airport
(ICAO code)
9. Route of Flight
10. Remarks


00:00:00 Departure ATIS: Destination ATIS:

Clearance Limit:
Route:
Altitude: Expect in minutes
Frequency:
Transponder: (7500 Hijack / 7600 Lost Comms / 7700 Emergency)


KGEG 211553Z 05006KT 10SM CLR 09/05 A3039 RMK AO2 SLP294 T00940050
Time: 2021-09-21T15:53:00Z
1632241408
Winds: 50 @ 6 kts
Visibility: 10.0 sm
Clouds (AGL): CLR
Temperature: 9.4 C
Dew Point: 5.0 C
Pressure: 30.389763 in Hgbr


Notes:

Data extracted from FAA Digital Chart Supplement. Effective: 0901Z Thursday, AUG 12, 2021 to 0901Z Thursday, OCT 7, 2021
Current ATIS data is provided courtisy of PilotEdge.